Weather History for Sheringham Point, BC

Change the Weather History Date:

Friday, December 27, 2013

  Actual Average Record
Temperature  
Mean Temperature 44 °F -  
Max Temperature 47 °F - - ()
Min Temperature 40 °F - - ()
Degree Days  
Heating Degree Days 22    
Moisture  
Dew Point 41 °F    
Average Humidity 89    
Maximum Humidity 97    
Minimum Humidity 82    
Precipitation  
Precipitation 0.28 in - - ()
Sea Level Pressure  
Sea Level Pressure 30.18 in    
Wind  
Wind Speed 9 mph ()    
Max Wind Speed 30 mph    
Max Gust Speed 37 mph    
T = Trace of Precipitation, MM = Missing Value Source: Averaged Metar Reports

Daily Weather History Graph

Daily Weather History Graph

Search for Another Location

Airport:

Trip Planner

Search our weather history database for the weather conditions in past years. The results will help you decide how hot, cold, wet, or windy it might be!

Date:

Astronomy

Dec. 27, 2013 Rise Set
Actual Time 8:06 AM PST 4:27 PM PST
Civil Twilight 7:29 AM PST 5:04 PM PST
Nautical Twilight 6:49 AM PST 5:44 PM PST
Astronomical Twilight 6:11 AM PST 6:22 PM PST
Moon 2:28 AM PST 12:55 PM PST
Length of Visible Light 9h 34m
Length of Day
8h 20m
Waning Crescent, 27% of the Moon is Illuminated
Dec 27
Waning Crescent
Jan 1
New
Jan 7
First Quarter
Jan 15
Full
Jan 23
Last Quarter

Hourly Weather History & Observations

Time (PST) Temp. Windchill Dew Point Humidity Pressure Visibility Wind Dir Wind Speed Gust Speed Precip Events Conditions
12:00 AM 43.0 °F 41.3 °F 38.5 °F 84% 30.20 in - East 3.5 mph - N/A   Unknown
1:00 AM 42.8 °F - 38.3 °F 84% 30.19 in - ESE 1.2 mph - N/A   Unknown
2:00 AM 43.2 °F 40.5 °F 38.1 °F 82% 30.17 in - East 4.6 mph - N/A   Unknown
3:00 AM 41.7 °F 38.8 °F 38.7 °F 89% 30.17 in - East 4.6 mph - N/A   Unknown
4:00 AM 42 °F - 39 °F 86% 30.15 in - Calm Calm - -  
4:00 AM 41.9 °F - 39.2 °F 90% 30.15 in - Calm Calm - N/A   Unknown
5:00 AM 42.4 °F - 39.0 °F 88% 30.13 in - East 1.2 mph - N/A   Unknown
6:00 AM 42.6 °F - 38.1 °F 84% 30.12 in - Calm Calm - N/A   Unknown
7:00 AM 42.8 °F - 38.5 °F 85% 30.11 in - NW 1.2 mph - N/A   Unknown
8:00 AM 41.9 °F - 39.2 °F 90% 30.09 in - ENE 1.2 mph - 0.06 in   Unknown
9:00 AM 41.7 °F 38.0 °F 38.3 °F 88% 30.09 in - WNW 5.8 mph - 0.08 in   Unknown
10:00 AM 45 °F - 44 °F 93% 30.10 in - WNW 12.7 mph - -  
10:00 AM 45.0 °F 38.9 °F 41.9 °F 89% 30.10 in - WNW 12.7 mph 19.6 mph 0.15 in   Unknown
11:00 AM 46.2 °F 39.0 °F 44.6 °F 94% 30.10 in - WNW 18.4 mph 25.3 mph 0.04 in   Unknown
12:00 PM 45.5 °F 36.0 °F 43.5 °F 93% 30.11 in - West 29.9 mph 36.8 mph N/A   Unknown
1:00 PM 47.1 °F - 41.9 °F 82% 30.14 in - West 28.8 mph - N/A   Unknown
2:00 PM 46.2 °F 37.5 °F 44.2 °F 93% 30.15 in - West 26.5 mph - N/A   Unknown
3:00 PM 46.4 °F 39.0 °F 43.9 °F 91% 30.18 in - West 19.6 mph - N/A   Unknown
4:00 PM 46 °F - 44 °F 89% 30.21 in - West 23.0 mph - -  
4:00 PM 45.9 °F 37.6 °F 41.9 °F 86% 30.21 in - West 23.0 mph - N/A   Unknown
5:00 PM 45.1 °F 36.9 °F 41.9 °F 88% 30.23 in - West 21.9 mph - N/A   Unknown
6:00 PM 45.3 °F 36.7 °F 43.9 °F 95% 30.25 in - West 24.2 mph - N/A   Unknown
7:00 PM 45.5 °F 37.3 °F 43.9 °F 94% 30.27 in - West 21.9 mph - N/A   Unknown
8:00 PM 43.7 °F 34.7 °F 42.8 °F 97% 30.29 in - WNW 23.0 mph - N/A   Unknown
9:00 PM 45.0 °F 37.4 °F 42.8 °F 92% 30.30 in - WNW 18.4 mph - N/A   Unknown
10:00 PM 45 °F - 43 °F 91% 30.31 in - WNW 15.0 mph - -  
10:00 PM 44.6 °F 37.8 °F 43.2 °F 95% 30.31 in - WNW 15.0 mph - N/A   Unknown
11:00 PM 44.8 °F 36.6 °F 42.8 °F 93% 30.32 in - WNW 20.7 mph - 0.01 in   Unknown